Regional Weather Roundup
Issued by NWS Charleston, WV

Home | Current Version | Previous Version | Graphics & Text | Print | Product List | Glossary On
Versions: 1 2 3 4 5 6 7 8 9 10 11 12 13 14 15 16 17 18 19 20 21 22 23 24 25 26 27 28 29 30 31 32 33 34 35 36 37 38 39 40 41 42 43 44 45 46 47 48 49 50
000
ASUS41 KRLX 240710
RWRRLX
West Virginia Regional Weather Roundup
National Weather Service Charleston WV
300 AM EDT MON JUL 24 2017

Note: "fair" indicates few or no clouds below 12,000 feet with no
significant weather and/or obstructions to visibility.

WVZ003-240800-
Northern Panhandle of West Virginia

CITY           SKY/WX    TMP DP  RH WIND       PRES   REMARKS
WHEELING       FOG       65  63  93 SW6       29.82S VSB 1/4
$$

WVZ009-240800-
Northwest West Virginia

CITY           SKY/WX    TMP DP  RH WIND       PRES   REMARKS
PARKERSBURG    PTCLDY    66  65  96 CALM      29.86R
$$

WVZ006-240800-
Western West Virginia

CITY           SKY/WX    TMP DP  RH WIND       PRES   REMARKS
HUNTINGTON     CLEAR     73  69  87 SW6       29.85R
$$

WVZ015-240800-
West Central West Virginia

CITY           SKY/WX    TMP DP  RH WIND       PRES   REMARKS
CHARLESTON     PTCLDY    71  69  93 CALM      29.85S
$$

WVZ022-031-240800-
North Central West Virginia

CITY           SKY/WX    TMP DP  RH WIND       PRES   REMARKS
CLARKSBURG     CLOUDY    69  66  90 W5        29.83R
MORGANTOWN     CLOUDY    67  65  93 CALM      29.84R
$$

WVZ025-035-042-045-240800-
Southern West Virginia

CITY           SKY/WX    TMP DP  RH WIND       PRES   REMARKS
BECKLEY        PTCLDY    68  65  90 SW5       29.95F
LOGAN          MOCLDY    72  70  94 CALM      29.90S
BLUEFIELD      MOCLDY    65  63  93 SW6       29.98F
LEWISBURG      CLOUDY    67  65  91 SW5       29.93F
$$

WVZ047-240800-
Northern Mountains of West Virginia

CITY           SKY/WX    TMP DP  RH WIND       PRES   REMARKS
ELKINS         CLOUDY    68  63  84 CALM      29.88F
$$

WVZ052-240800-
Eastern Panhandle of West Virginia

CITY           SKY/WX    TMP DP  RH WIND       PRES   REMARKS
MARTINSBURG    MOCLDY    71  70  96 CALM      29.74F FOG
PETERSBURG     MOCLDY    78  65  64 CALM      29.79F
$$



USA.gov is the U.S. government's official web portal to all federal, state and local government web resources and services.